Flag for Germany Weather past 2 weeks in Oranienburg, Brandenburg, Germany

Now
67 °F

Scattered clouds.


Feels Like: 67 °F
Forecast: 56 / 73 °F
Wind: 3 mph from Southeast

Location: Berlin-Tegel

Current Time: Sep 19, 2014 at 6:29:15 PM

Latest Report: Sep 19, 2014 at 6:00 PM


Visibility: 11 mi

Pressure: 29.93 "Hg

Humidity: 67%

Dew point: 56 °F

Location of OranienburgLocation

Historic Weather in Oranienburg — Graph

°F

Oranienburg temperature yesterday

Maximum temperature yesterday: 75 °F (at 3:00 PM)
Minimum temperature yesterday: 57 °F (at 7:00 AM)
Average temperature yesterday: 66 °F

Past Weeks' High & Low Weather Summary

 TemperatureHumidityPressure
High81 °F (Sep 6, 3:00 PM)95% (Sep 13, 7:00 AM)30.16 "Hg (Sep 13, 7:00 AM)
Low52 °F (Sep 9, 6:00 AM)35% (Sep 6, 4:00 PM)29.87 "Hg (Sep 6, 6:00 PM)
Average65 °F71%30.03 "Hg
* Reported Sep 4 5:00 PM — Sep 19 5:00 PM, Oranienburg, Weather by CustomWeather, © 2014

Note: Actual official high and low records may vary slightly from our data, if they occured in-between our weather recording intervals... More about our weather records

Advertising

Oranienburg weather history for previous 24 hours

 ConditionsComfort  
Time TempWeatherWind HumidityBarometerVisibility
5:00 PM
Sep 19
68 °FScattered clouds.3 mph65%29.93 "Hg11 mi
4:00 PM69 °FPartly sunny.3 mph65%29.94 "Hg11 mi
3:00 PM66 °FOvercast.2 mph71%29.95 "Hg9 mi
2:00 PM65 °FOvercast.2 mph75%29.95 "Hg9 mi
1:00 PM63 °FOvercast.1 mph79%29.96 "Hg9 mi
12:00 PM62 °FLight rain. Overcast.2 mph86%29.95 "Hg7 mi
11:00 AM61 °FLight rain. Overcast.2 mph83%29.96 "Hg7 mi
10:00 AM61 °FLight rain. Overcast.2 mph76%29.96 "Hg7 mi
9:00 AM59 °FPartly sunny.1 mph80%29.96 "Hg8 mi
8:00 AM57 °FPartly sunny.1 mph82%29.95 "Hg8 mi
7:00 AM57 °FPartly sunny.2 mph81%29.94 "Hg8 mi
6:00 AM57 °FClear.1 mph82%29.94 "Hg16 mi
5:00 AM57 °FClear.1 mph81%29.94 "Hg16 mi
4:00 AM57 °FClear.1 mph82%29.95 "Hg16 mi
3:00 AM58 °FCool.1 mph77%29.95 "HgN/A
2:00 AM60 °FClear.3 mph73%29.96 "Hg16 mi
1:00 AM61 °FClear.2 mph68%29.96 "Hg16 mi
12:00 AM63 °FPassing clouds.2 mph63%29.96 "Hg16 mi
11:00 PM
Sep 18
65 °FPassing clouds.2 mph59%29.96 "Hg16 mi
10:00 PM65 °FPassing clouds.2 mph59%29.96 "Hg16 mi
9:00 PM66 °FPassing clouds.2 mph56%29.96 "Hg16 mi
8:00 PM68 °FPassing clouds.2 mph51%29.96 "Hg16 mi
7:00 PM72 °FPassing clouds.6 mph42%29.95 "Hg16 mi
6:00 PM74 °FPassing clouds.6 mph39%29.95 "Hg16 mi
Weather by CustomWeather, © 2014

See weather overviewHow to use our weather pages